Flag Weather past 2 weeks in Pomona, California, U.S.A.

Now
89 °F

Partly sunny.


Feels Like: 85 °F
Forecast: 54 / 86 °F
Wind: No wind

Location: Chino Airport

Current Time: Nov 27, 2014 at 3:15:37 PM

Latest Report: Nov 27, 2014 at 1:53 PM


Visibility: 10 mi

Pressure: 30.01 "Hg

Humidity: 11%

Dew point: 29 °F

Location of PomonaLocation

Historic Weather in Pomona — Graph

°F

Pomona temperature yesterday

Maximum temperature yesterday: 88 °F (at 1:53 PM)
Minimum temperature yesterday: 40 °F (at 5:53 AM)
Average temperature yesterday: 61 °F

Past Weeks' High & Low Weather Summary

 TemperatureHumidityPressure
High89 °F (Nov 27, 1:53 PM)97% (Nov 21, 6:53 AM)30.41 "Hg (Nov 21, 6:53 AM)
Low40 °F (Nov 24, 6:53 AM)4% (Nov 16, 12:53 PM)29.93 "Hg (Nov 21, 1:53 PM)
Average60 °F51%30.10 "Hg
* Reported Nov 12 1:53 PM — Nov 27 1:53 PM, Pomona, Weather by CustomWeather, © 2014

Note: Actual official high and low records may vary slightly from our data, if they occured in-between our weather recording intervals... More about our weather records

Advertising

Pomona weather history for previous 24 hours

 ConditionsComfort  
Time TempWeatherWind HumidityBarometerVisibility
1:53 PM
Nov 27
89 °FPartly sunny.No wind11%30.01 "Hg10 mi
12:53 PM86 °FPartly sunny.No wind11%30.04 "Hg10 mi
11:53 AM84 °FPartly sunny.No wind12%30.07 "Hg10 mi
10:53 AM79 °FScattered clouds.No wind17%30.11 "Hg10 mi
9:53 AM74 °FPassing clouds.No wind21%30.14 "Hg10 mi
8:53 AM65 °FPassing clouds.No wind39%30.15 "Hg10 mi
7:53 AM55 °FScattered clouds.No wind59%30.15 "Hg10 mi
6:53 AM47 °FPassing clouds.No wind61%30.14 "Hg10 mi
5:53 AM44 °FClear.No wind68%30.13 "Hg7 mi
4:53 AM42 °FClear.No wind73%30.13 "Hg7 mi
3:53 AM46 °FClear.No wind66%30.12 "Hg9 mi
2:53 AM50 °FClear.3 mph52%30.13 "Hg9 mi
1:53 AM46 °FClear.6 mph66%30.14 "Hg8 mi
12:53 AM48 °FClear.No wind63%30.14 "Hg8 mi
10:53 PM
Nov 26
53 °FClear.5 mph51%30.16 "Hg8 mi
9:53 PM55 °FClear.No wind47%30.16 "Hg7 mi
8:53 PM55 °FClear.6 mph53%30.17 "Hg6 mi
7:53 PM55 °FClear.No wind57%30.16 "Hg10 mi
6:53 PM69 °FClear.3 mph25%30.16 "Hg8 mi
5:53 PM69 °FClear.No wind26%30.14 "Hg6 mi
4:53 PM71 °FClear.5 mph26%30.14 "Hg10 mi
3:53 PM80 °FSunny.No wind25%30.14 "Hg10 mi
Weather by CustomWeather, © 2014

See weather overviewHow to use our weather pages